Dewpoint
-5 -6 -7 -3 -0 1 3 3 1 1 1 7 11 11 11 13 12 12 11 6 7 5 12 12 9 6 6 5 5 5 6 6 6 3 -3 -3 -0 1 0 1 -1 -1 -1 -2 -2 -2 2 4 4
-6 -7 -6 -3 1 4 5 1 2 1 -2 -5 8 11 11 13 13 12 7 6 7 5 10 11 9 6 7 6 5 5 5 5 2 -4 -5 -4 -3 -2 1 -0 -1 -0 -1 -2 -0 1 4 4 4
-7 -10 -5 -3 -0 4 5 1 0 -3 -7 -4 7 10 11 12 11 9 9 10 6 5 9 11 9 8 8 6 4 2 -1 -3 -3 -4 -4 -3 -2 -0 0 -1 -0 -0 -1 -2 0 2 3 3 4
-8 -8 -5 -2 -1 -2 -0 -1 -4 -5 -10 1 8 12 12 12 11 12 11 11 6 5 8 10 9 9 9 8 5 -1 -4 -3 -2 -2 -3 -2 -1 -1 -1 0 0 -1 -2 -2 0 2 2 2 3
-11 -7 -4 -3 -2 -4 -4 -4 -6 -7 -8 -1 11 12 12 12 11 12 12 11 5 5 8 10 9 9 9 9 5 0 -3 -3 -2 -1 -1 -2 -2 0 1 0 -0 -1 -2 -2 -1 0 0 1 1
-10 -7 -4 -2 -3 -5 -6 -7 -9 -11 -10 9 11 12 12 11 11 11 11 9 5 4 8 10 10 9 9 9 8 3 1 -3 -2 -1 -0 -0 0 -0 -0 -0 -1 -2 -3 -3 -3 -2 -2 -1 -1
-9 -7 -5 -5 -5 -7 -8 -11 -12 -12 -10 1 11 12 12 11 12 12 11 9 6 5 6 9 10 9 10 10 10 9 7 4 1 -2 -2 -2 -1 -1 -2 -2 -1 -2 -3 -4 -4 -4 -3 -3 -2
-10 -8 -6 -6 -6 -6 -9 -11 -11 -11 -9 6 10 10 11 11 12 12 11 9 7 5 4 6 8 8 8 9 10 11 10 9 7 5 2 -0 -1 -2 -2 -2 -1 -2 -3 -4 -5 -5 -4 -4 -4
-9 -8 -6 -7 -7 -8 -10 -10 -10 -11 -8 -2 6 5 9 13 12 12 11 10 8 5 4 5 6 8 8 9 9 10 11 12 11 10 9 8 4 2 -1 -2 -2 -2 -2 -3 -4 -4 -5 -4 -4
-10 -8 -8 -9 -10 -9 -10 -10 -10 -11 -7 -3 1 6 11 12 13 13 12 11 8 5 4 4 5 6 8 9 10 10 11 11 12 12 11 10 8 6 4 1 -0 -1 -1 -2 -3 -4 -4 -4 -4
-10 -9 -10 -10 -9 -8 -8 -10 -10 -10 -10 -9 -6 -1 10 12 13 12 12 12 11 9 7 7 4 5 7 8 9 10 10 11 11 12 12 12 11 10 9 7 4 0 -2 -2 -2 -3 -3 -4 -4
-11 -11 -11 -11 -11 -11 -11 -11 -10 -11 -11 -11 -12 -11 -6 9 13 13 13 13 13 12 10 10 8 7 6 6 7 7 7 8 9 9 10 12 12 12 12 11 10 9 6 1 -0 -2 -2 -3 -4
-10 -11 -12 -12 -13 -12 -12 -11 -11 -11 -11 -11 -12 -12 -11 -11 -7 1 7 12 13 13 13 12 11 10 9 8 4 5 6 7 5 5 6 7 9 11 12 13 13 12 11 10 9 5 0 -2 -2
-11 -11 -12 -12 -12 -12 -11 -12 -11 -12 -12 -12 -11 -12 -12 -12 -11 -11 -11 -9 -5 2 10 12 13 13 12 12 10 5 5 6 6 6 5 5 5 6 7 8 9 11 12 13 13 12 11 8 2
-11 -10 -10 -11 -11 -11 -12 -10 -9 -13 -12 -12 -12 -12 -13 -13 -13 -13 -13 -13 -13 -12 -11 -9 -3 11 13 13 13 8 5 6 7 7 7 8 9 10 12 12 11 9 8 8 7 6 9 10 9
-8 -9 -6 -9 -11 -11 -11 -8 -11 -12 -12 -12 -12 -12 -13 -13 -14 -14 -13 -13 -13 -12 -10 -7 -5 -3 1 9 13 11 7 7 7 9 11 12 13 13 14 14 13 12 12 11 10 9 7 5 7
-6 -4 -6 -7 -10 -11 -10 -9 -11 -12 -11 -11 -12 -13 -13 -14 -14 -14 -13 -13 -12 -12 -11 -6 -5 -3 1 6 14 11 9 11 12 12 12 13 12 12 13 13 13 14 14 14 13 13 13 11 7
-3 -5 -6 -6 -8 -10 -8 -8 -9 -10 -10 -10 -11 -11 -12 -13 -14 -14 -14 -13 -11 -11 -11 -7 -3 1 5 10 14 11 12 13 13 13 13 11 9 10 13 12 10 11 12 13 13 13 14 14 13
-6 -6 -6 -6 -8 -8 -8 -8 -8 -9 -10 -10 -11 -11 -12 -13 -13 -13 -13 -12 -11 -11 -11 -8 -2 -0 1 9 11 13 11 14 14 13 11 10 10 12 14 13 11 11 9 9 9 13 13 13 13
-5 -5 -4 -6 -7 -8 -6 -6 -7 -8 -9 -10 -10 -11 -12 -13 -14 -13 -12 -12 -11 -11 -12 -11 -7 -3 -0 3 11 12 12 13 14 13 13 14 12 11 11 11 12 12 13 13 11 11 11 11 11
-4 -4 -4 -4 -5 -7 -6 -5 -7 -8 -9 -9 -9 -9 -11 -11 -11 -11 -11 -11 -11 -11 -11 -11 -8 -5 -3 1 9 12 12 14 12 8 2 -2 -2 -2 -2 -1 1 6 10 11 11 12 13 13 13
-3 -4 -3 -3 -3 -2 -7 -2 -6 -7 -8 -8 -9 -9 -6 -5 -7 -9 -9 -10 -10 -10 -10 -7 -5 1 8 12 12 13 13 10 -1 -2 -2 -3 -4 -4 -3 0 2 2 2 2 5 8 10 11 12
-3 -5 -3 -3 -3 -5 -5 -4 -5 -6 -6 -7 -8 -6 -2 -2 -2 -3 -3 -6 -8 -9 -6 -1 3 9 12 13 9 5 -1 -2 -2 -5 -6 -7 -8 -6 -3 0 3 3 2 3 4 6 7 8 10
-6 -5 -4 -4 -4 -2 -4 -4 -4 -5 -7 -7 -4 -3 -1 -2 -3 -3 -3 -3 -4 -6 0 7 7 6 3 1 -0 -1 -1 -3 -4 -6 -7 -8 -5 -4 -1 0 1 2 1 3 7 8 7 8 11
-5 -3 -1 -1 -1 0 -4 -3 -4 -6 -5 -3 -1 -0 -1 -1 -2 -3 -3 -3 -4 -2 5 6 5 3 1 -0 -1 -1 -2 -3 -4 -5 -6 -7 -6 -5 -5 -5 -4 -2 1 1 1 3 4 8 8
-3 -3 -1 1 1 -1 -1 1 -2 -1 2 0 -0 -0 0 1 1 1 1 -0 1 5 7 4 2 0 -0 -1 -2 -2 -3 -4 -4 -4 -4 -4 -3 -3 -2 -3 -3 -4 -4 -5 -5 -2 0 4 7
-2 -3 -5 0 3 3 1 1 -1 2 3 2 1 -0 -0 0 1 3 5 5 5 4 2 0 -0 -0 -1 -2 -2 -3 -4 -4 -4 -3 -3 -3 -2 -2 -2 -1 -1 -1 -2 -3 -6 -7 -7 -4 1
-1 -1 3 3 6 6 4 4 2 4 3 2 2 1 -1 -1 -1 -1 1 3 2 1 1 0 -1 -2 -2 -3 -4 -4 -4 -3 -2 -2 -2 -2 -1 -0 -1 -1 -0 -1 -1 -1 -1 -2 -3 -4 -7
2 3 3 3 4 5 6 4 1 3 2 2 1 1 1 1 0 -0 -2 -2 -1 -0 -0 -1 -2 -2 -3 -4 -4 -3 -2 -1 -1 -2 -1 -0 0 -0 -1 -1 -0 0 0 -0 -0 -0 -1 -1 -2
2 5 4 6 6 4 4 5 1 2 2 1 0 -1 -2 -2 -2 -1 1 2 -0 -2 -2 -1 -1 -1 -1 -1 -1 -1 -1 -0 0 1 2 2 2 1 0 1 1 2 2 1 -0 -0 -0 -1 -1
Wind_Speed
8 9 8 1 3 5 3 5 2 5 8 7 4 3 6 4 2 3 11 26 27 28 30 30 27 24 21 19 19 19 17 15 13 12 13 14 15 16 18 17 15 13 11 10 10 10 10 9 9
8 7 2 3 4 3 5 4 3 1 10 21 4 1 5 1 1 6 21 19 26 26 29 28 26 24 21 19 18 18 18 16 14 14 15 16 18 18 18 15 14 12 10 9 10 10 9 9 8
6 5 2 4 3 6 5 4 2 7 22 11 3 6 3 2 7 22 18 18 25 26 27 27 26 24 21 19 18 18 17 16 16 16 17 18 18 18 16 14 12 10 9 9 10 9 8 8 7
3 1 3 4 5 5 6 4 3 10 10 2 6 6 4 3 14 11 19 18 28 26 28 27 25 23 21 19 17 17 16 17 17 18 18 19 18 17 16 14 12 10 9 9 9 9 8 7 7
2 2 3 1 4 4 3 7 8 4 7 7 2 6 6 11 7 9 15 17 27 26 28 28 26 23 22 20 18 17 17 17 18 18 18 18 17 17 15 14 12 10 9 9 9 9 8 7 7
1 2 3 3 4 3 2 6 4 3 8 5 1 11 8 12 10 15 14 17 25 25 28 27 26 24 22 21 19 18 17 17 18 18 18 17 16 14 13 12 10 9 9 8 8 8 8 7 7
4 4 4 3 3 1 2 4 3 2 8 5 9 2 5 15 18 16 15 19 25 25 25 26 26 25 22 21 20 18 17 16 16 17 17 16 16 14 13 11 10 9 8 7 7 7 7 7 7
2 4 3 5 3 4 2 1 6 2 4 4 10 4 6 22 23 20 20 24 23 23 23 23 24 24 24 23 21 19 18 17 16 15 15 15 14 14 13 12 11 11 10 10 9 9 8 9 9
4 3 4 5 6 4 1 6 8 11 4 3 3 4 7 24 25 22 21 24 26 25 24 24 23 24 24 24 23 22 20 19 18 17 15 15 14 14 13 13 12 11 11 11 11 11 11 12 12
6 4 9 7 5 2 8 3 9 6 6 7 9 6 13 21 21 20 20 21 23 24 24 24 25 25 25 26 25 24 23 23 22 21 20 18 17 16 15 15 15 16 15 15 15 15 14 14 13
6 5 6 5 10 2 2 11 5 8 2 5 7 8 11 18 19 20 19 19 18 21 23 22 23 24 26 27 26 26 26 25 25 24 23 21 21 19 18 17 16 16 16 16 17 17 17 15 15
4 11 6 6 5 7 3 3 7 6 6 5 0 4 5 11 20 24 24 24 22 22 23 23 24 24 24 25 26 26 26 27 27 25 25 24 23 23 22 21 19 19 18 20 17 18 18 21 18
5 3 10 25 23 18 17 10 9 12 17 16 7 6 9 9 10 12 17 21 23 24 23 23 24 25 24 23 24 26 27 27 24 23 22 23 24 24 23 23 23 23 21 22 21 20 22 23 23
9 14 17 12 16 8 6 13 5 8 15 13 14 12 10 10 11 11 12 11 12 15 21 25 27 27 27 26 24 27 27 25 21 20 18 19 20 20 22 23 24 25 25 25 24 25 25 24 27
7 3 6 7 10 6 10 7 7 21 20 19 17 16 16 15 16 16 14 12 12 13 14 17 19 26 29 30 28 28 25 22 20 19 17 17 17 17 19 20 22 21 23 24 26 26 27 28 28
6 2 3 3 9 6 14 6 4 12 17 17 19 20 20 19 19 18 18 17 16 14 17 19 21 22 24 27 29 27 22 19 19 16 16 17 19 19 20 19 18 18 20 21 23 24 26 28 30
4 3 5 5 9 4 5 4 6 6 10 14 20 24 23 22 20 20 19 21 18 15 12 16 20 21 23 24 26 24 21 19 16 17 15 16 15 17 18 20 21 21 22 23 23 24 23 25 29
6 5 4 5 1 3 2 6 7 14 5 14 21 21 24 22 21 23 23 22 21 16 13 13 15 17 19 21 23 24 21 21 17 15 14 15 16 16 18 20 20 22 25 26 25 25 24 26 28
5 3 2 2 3 3 3 4 11 13 8 13 15 17 18 17 18 20 22 21 24 19 16 16 18 18 17 19 21 23 20 22 19 17 18 18 18 19 20 22 22 23 26 26 26 26 26 28 27
2 2 3 6 5 4 6 7 7 7 6 7 11 14 19 18 20 18 19 19 23 23 21 20 21 21 19 22 23 24 23 23 21 20 18 16 16 16 18 21 22 23 25 26 28 28 30 30 27
3 4 3 5 4 3 4 6 4 5 7 8 8 9 13 14 18 21 20 21 25 26 25 24 23 23 23 25 28 29 25 22 16 9 8 10 11 14 17 19 21 24 25 25 23 22 21 24 26
3 8 9 5 3 3 3 5 4 4 7 6 11 6 7 8 13 17 18 21 26 27 29 27 26 29 30 31 31 30 26 17 10 7 8 11 15 19 21 20 18 16 16 17 21 24 24 22 22
7 5 6 5 3 4 1 1 7 2 3 5 7 7 8 10 11 13 16 22 24 28 33 33 32 32 30 26 21 17 12 9 5 5 9 15 18 17 18 20 21 20 19 18 18 19 20 23 23
4 5 7 4 3 3 5 6 4 4 4 2 4 9 11 12 14 16 17 19 24 32 35 35 33 31 27 22 17 12 7 4 5 8 11 14 13 13 13 15 18 20 19 17 15 16 17 18 19
5 6 2 2 1 5 1 2 7 3 4 3 7 12 12 12 12 14 17 18 19 30 34 32 28 23 19 16 11 8 7 7 10 11 11 11 11 10 10 12 14 16 16 15 15 16 16 16 16
6 8 5 6 4 4 1 5 4 2 6 2 2 3 4 6 6 8 8 6 12 26 27 24 19 16 14 12 9 9 11 12 12 12 12 13 12 11 12 13 13 14 11 13 14 15 16 16 17
4 4 6 7 3 3 3 5 6 2 3 6 10 10 9 9 6 7 11 14 19 21 19 18 19 15 12 11 11 13 16 16 16 16 15 17 16 14 15 15 16 16 15 14 12 11 15 17 18
4 7 3 2 5 4 3 3 5 1 5 5 7 10 8 6 7 5 5 16 20 20 18 16 14 14 14 15 16 18 19 19 18 19 20 21 21 20 21 21 22 21 20 18 17 16 14 15 18
3 2 6 5 4 5 2 5 4 6 6 6 7 9 10 15 18 7 3 1 8 13 17 18 19 19 20 21 23 26 25 23 23 25 25 26 26 25 26 26 27 28 28 25 24 22 19 20 21
2 3 3 4 4 2 4 6 2 7 4 6 11 17 20 21 20 15 7 7 8 11 17 21 23 27 30 31 32 31 29 30 31 31 30 31 32 32 32 33 35 35 35 33 32 29 26 23 22
Wind_Direction
287 300 318 296 62 65 274 265 255 344 346 346 346 265 138 117 170 218 159 166 168 169 169 168 167 170 174 179 181 182 180 180 181 180 176 170 165 161 156 154 153 153 152 148 147 145 140 134 133
285 295 286 126 101 99 262 266 229 250 302 311 288 37 71 114 271 158 151 167 170 172 171 170 169 170 174 182 183 183 185 186 184 176 171 167 164 161 160 160 161 159 155 152 151 149 146 142 138
291 296 209 106 120 171 218 227 260 283 315 265 280 52 43 40 127 147 154 162 170 175 173 173 172 172 175 183 185 186 184 181 177 173 170 166 163 163 164 165 167 165 161 158 156 156 152 151 153
280 216 78 110 200 242 213 269 256 328 331 31 169 94 115 147 140 157 167 168 171 177 176 176 175 176 178 185 187 184 181 178 177 174 170 167 167 168 170 172 175 175 171 167 163 163 162 163 171
262 131 76 143 235 254 226 271 307 318 286 298 187 155 150 154 148 168 169 173 176 180 179 178 178 182 184 188 190 188 184 182 181 178 174 173 174 176 178 180 182 182 180 175 170 172 174 178 182
103 95 87 222 240 249 258 273 283 267 306 302 191 157 155 180 184 158 159 167 180 185 182 180 182 188 189 191 194 194 191 186 185 183 182 182 184 188 189 191 192 193 190 186 184 185 183 186 190
128 93 208 199 251 314 234 300 244 304 275 251 165 121 171 166 165 160 158 172 180 188 185 184 186 190 195 197 199 200 199 195 192 191 190 191 193 195 199 201 203 204 204 204 204 203 198 195 195
201 99 180 228 201 253 229 28 347 9 280 1 157 204 209 166 166 167 170 176 183 188 191 192 193 197 201 203 204 206 207 207 206 204 201 202 203 205 206 208 210 212 212 211 213 217 216 212 208
208 83 201 226 162 225 146 24 340 330 322 58 225 296 255 169 171 173 173 181 186 189 194 196 200 204 207 209 210 211 213 215 217 217 215 215 216 217 217 219 222 226 228 226 225 228 228 225 221
180 174 216 205 193 178 330 54 324 328 21 58 89 109 155 177 177 180 181 183 187 189 194 200 204 208 211 213 215 217 217 219 222 224 225 226 225 227 229 230 229 227 230 235 239 237 233 240 239
202 209 203 232 225 200 97 315 315 298 58 87 78 84 165 190 193 201 201 200 199 193 197 201 208 212 215 218 219 221 223 225 228 229 231 233 235 236 238 240 244 251 251 248 252 253 260 251 255
216 198 213 286 250 238 226 270 303 246 276 323 161 145 160 204 211 212 214 214 215 212 208 211 212 215 219 225 227 230 232 232 232 235 237 239 242 244 247 250 252 255 258 262 261 263 266 270 263
211 219 211 240 253 267 280 264 253 267 276 295 245 222 202 188 198 222 235 239 234 229 225 228 226 224 223 227 233 234 237 238 243 246 246 250 251 252 256 259 259 262 263 265 266 266 268 269 270
213 212 242 256 255 238 204 267 185 272 271 272 249 252 244 222 223 210 202 211 225 234 231 230 231 233 233 232 234 235 237 241 247 252 254 256 259 262 266 271 272 273 272 274 276 277 276 274 271
210 210 253 227 242 232 223 297 197 264 265 258 248 237 245 247 244 237 249 253 241 245 238 240 245 236 235 236 238 237 237 242 248 253 257 260 262 269 275 278 278 278 280 278 274 273 273 272 274
158 129 191 242 165 236 160 253 261 246 240 246 251 253 246 246 251 247 241 237 240 244 227 225 230 236 243 238 238 237 235 237 239 247 255 264 269 271 275 278 282 285 284 284 281 282 277 273 271
11 181 197 278 202 135 161 212 248 263 245 258 269 260 256 247 250 247 247 242 236 236 221 221 229 228 234 235 232 227 228 225 234 248 260 269 269 270 279 285 281 279 281 281 283 283 281 280 277
177 189 220 211 147 169 159 245 277 303 262 279 283 262 249 249 253 255 259 244 231 226 232 211 214 223 238 235 221 216 224 225 239 253 264 264 269 276 282 289 287 283 284 288 287 286 286 282 284
157 178 198 243 283 1 238 257 278 292 307 281 284 259 236 247 260 259 264 244 232 229 232 228 204 207 216 215 212 219 224 226 241 258 266 266 273 277 278 278 276 274 273 280 284 285 285 284 283
110 195 257 283 262 164 288 281 276 285 253 277 312 278 249 252 259 258 264 238 227 232 238 237 225 217 218 216 215 218 225 228 244 253 259 269 277 280 281 282 282 280 277 275 274 275 278 279 280
177 171 235 232 358 287 330 313 293 302 293 310 304 295 265 262 277 274 266 240 234 232 235 236 229 220 210 209 214 218 222 226 226 235 266 282 293 298 298 292 286 280 277 277 277 280 282 280 277
252 205 215 224 114 215 101 279 294 261 298 303 300 330 331 314 282 276 273 266 257 242 231 227 224 214 212 212 215 220 225 216 212 228 275 298 307 308 307 305 299 295 287 279 271 268 270 273 274
221 156 182 187 163 129 273 30 270 304 255 271 301 311 318 312 301 291 266 257 256 242 227 218 212 209 207 206 207 208 201 199 227 287 313 320 314 309 307 307 310 309 299 288 274 271 267 261 260
132 105 47 57 92 237 212 177 268 209 214 306 292 290 303 306 295 290 288 270 243 230 216 206 202 197 196 196 197 198 210 243 298 309 321 323 323 328 326 323 319 315 310 297 288 281 275 269 267
81 67 14 357 353 225 349 165 239 273 275 258 290 299 295 291 287 283 276 266 240 219 200 191 190 190 189 194 198 220 253 277 294 307 311 313 314 320 329 328 330 318 308 306 298 291 286 277 275
180 152 156 196 200 239 11 238 242 198 353 47 55 328 318 324 325 315 297 263 223 189 181 179 184 194 206 215 227 254 269 283 290 297 293 293 303 304 306 311 323 327 319 314 308 303 297 290 280
174 154 184 105 15 81 241 292 321 46 58 58 54 58 53 57 80 128 130 141 158 167 177 193 200 203 221 242 254 267 277 279 284 286 287 292 287 288 294 299 298 309 308 304 316 316 307 302 298
141 154 93 3 142 217 277 280 232 79 65 22 29 40 73 58 18 4 164 168 178 188 194 201 215 232 253 264 269 276 278 274 272 281 281 282 283 279 289 288 286 282 283 285 294 300 305 310 308
31 89 57 110 127 172 175 258 222 154 78 15 359 349 357 16 1 1 44 263 231 223 223 227 233 241 248 259 259 257 258 262 271 276 276 273 277 280 284 286 280 279 277 276 277 286 286 291 300
67 124 121 138 195 139 143 262 292 144 110 28 4 4 350 333 339 339 295 283 246 242 244 242 246 250 254 258 260 262 263 262 263 264 261 262 264 270 278 280 279 273 274 274 273 273 282 278 282
Height
1507 1507 1506 1506 1518 1524 1529 1515 1501 1499 1494 1489 1487 1487 1485 1488 1490 1503 1488 1492 1496 1499 1503 1506 1509 1511 1514 1517 1519 1521 1523 1525 1527 1529 1531 1533 1535 1538 1540 1542 1544 1545 1547 1548 1549 1550 1552 1553 1553
1505 1506 1505 1505 1524 1538 1531 1505 1502 1497 1494 1487 1486 1485 1486 1489 1488 1489 1490 1494 1496 1500 1504 1508 1510 1513 1515 1517 1519 1521 1524 1525 1528 1530 1532 1534 1536 1538 1541 1543 1545 1547 1548 1549 1551 1552 1553 1554 1555
1503 1504 1504 1509 1527 1532 1524 1501 1498 1496 1488 1489 1484 1484 1485 1489 1487 1490 1492 1494 1497 1500 1504 1509 1511 1514 1516 1518 1520 1522 1523 1525 1528 1530 1533 1535 1538 1540 1543 1545 1547 1548 1549 1551 1552 1553 1554 1555 1556
1502 1503 1505 1513 1520 1511 1506 1498 1497 1494 1486 1485 1485 1487 1488 1488 1490 1491 1492 1494 1496 1500 1504 1508 1511 1514 1517 1520 1521 1523 1524 1526 1529 1531 1533 1536 1538 1541 1543 1545 1547 1548 1550 1551 1553 1554 1555 1555 1557
1501 1501 1512 1515 1512 1502 1497 1495 1494 1494 1490 1486 1486 1487 1487 1488 1490 1491 1493 1494 1497 1501 1504 1507 1511 1514 1517 1519 1522 1524 1526 1528 1530 1532 1534 1537 1539 1541 1543 1545 1547 1549 1550 1551 1553 1554 1555 1556 1557
1500 1502 1517 1519 1508 1497 1493 1494 1494 1493 1489 1485 1486 1484 1487 1488 1490 1491 1493 1495 1499 1502 1504 1508 1511 1514 1516 1519 1522 1524 1527 1529 1531 1533 1535 1537 1540 1542 1544 1546 1548 1549 1550 1551 1553 1554 1555 1557 1559
1501 1506 1512 1509 1503 1499 1492 1493 1492 1491 1488 1484 1484 1486 1485 1486 1489 1492 1493 1496 1498 1502 1505 1508 1511 1515 1518 1520 1522 1525 1528 1531 1533 1535 1536 1538 1540 1542 1544 1546 1548 1550 1551 1553 1553 1554 1556 1557 1559
1499 1502 1509 1505 1504 1502 1490 1490 1490 1490 1486 1483 1484 1486 1484 1483 1487 1491 1493 1496 1500 1503 1505 1507 1510 1513 1516 1519 1522 1525 1528 1531 1534 1536 1538 1540 1542 1543 1545 1546 1548 1549 1550 1551 1553 1555 1556 1557 1558
1498 1509 1512 1501 1499 1493 1491 1489 1488 1486 1483 1483 1483 1483 1484 1485 1487 1490 1493 1496 1499 1502 1504 1507 1509 1512 1516 1519 1521 1524 1527 1530 1533 1535 1538 1539 1542 1544 1545 1547 1548 1550 1551 1552 1552 1554 1555 1556 1556
1498 1506 1499 1489 1488 1489 1488 1490 1492 1488 1482 1484 1483 1483 1484 1486 1489 1491 1493 1496 1498 1500 1502 1505 1507 1510 1514 1517 1520 1523 1525 1527 1530 1532 1535 1538 1540 1542 1543 1545 1545 1546 1548 1550 1551 1551 1552 1554 1555
1491 1495 1486 1482 1485 1486 1487 1490 1492 1488 1483 1484 1485 1485 1486 1487 1489 1491 1493 1495 1496 1499 1502 1504 1506 1509 1512 1515 1518 1520 1523 1526 1528 1530 1533 1536 1538 1539 1542 1543 1545 1547 1548 1548 1550 1551 1553 1552 1554
1490 1484 1483 1477 1482 1486 1485 1487 1491 1489 1482 1484 1485 1487 1488 1488 1490 1491 1492 1494 1496 1498 1500 1502 1504 1507 1510 1513 1516 1518 1521 1522 1524 1528 1531 1533 1535 1538 1539 1542 1544 1545 1546 1548 1548 1549 1550 1552 1551
1485 1482 1481 1481 1482 1481 1481 1483 1485 1483 1482 1482 1483 1485 1487 1488 1489 1490 1492 1494 1496 1497 1499 1501 1504 1505 1508 1510 1512 1515 1518 1520 1523 1526 1528 1531 1533 1535 1537 1539 1541 1542 1543 1545 1545 1546 1547 1548 1549
1476 1477 1476 1476 1478 1480 1483 1478 1481 1478 1480 1481 1480 1481 1483 1486 1487 1489 1490 1491 1493 1494 1496 1499 1501 1503 1505 1507 1509 1511 1514 1518 1522 1524 1526 1528 1530 1532 1534 1535 1537 1539 1540 1542 1543 1544 1543 1544 1545
1475 1479 1474 1476 1474 1475 1476 1480 1479 1475 1477 1478 1479 1480 1481 1482 1484 1486 1487 1488 1490 1492 1494 1494 1495 1498 1501 1504 1506 1508 1512 1517 1520 1522 1524 1526 1527 1529 1532 1532 1533 1533 1535 1536 1537 1537 1537 1538 1539
1476 1478 1482 1469 1470 1469 1473 1485 1470 1470 1471 1473 1475 1476 1477 1479 1480 1482 1483 1485 1487 1488 1490 1492 1493 1495 1496 1499 1502 1506 1510 1514 1517 1519 1521 1522 1525 1526 1527 1527 1527 1529 1530 1531 1531 1532 1532 1530 1532
1478 1486 1482 1472 1463 1465 1471 1478 1466 1467 1468 1469 1469 1470 1471 1473 1475 1477 1479 1480 1482 1484 1486 1488 1490 1491 1492 1494 1498 1503 1507 1510 1513 1515 1517 1519 1520 1522 1522 1523 1524 1525 1525 1525 1526 1527 1526 1525 1527
1480 1481 1474 1472 1464 1465 1468 1471 1465 1462 1463 1464 1462 1462 1464 1466 1467 1470 1473 1475 1478 1480 1482 1485 1487 1489 1490 1492 1495 1499 1504 1507 1509 1511 1512 1514 1514 1516 1516 1518 1519 1520 1520 1520 1519 1519 1520 1521 1521
1466 1470 1471 1468 1463 1464 1466 1467 1461 1456 1459 1459 1455 1456 1458 1460 1462 1464 1465 1467 1472 1475 1478 1481 1483 1484 1486 1488 1492 1495 1498 1502 1504 1506 1507 1508 1510 1510 1511 1512 1513 1514 1513 1514 1514 1513 1512 1513 1516
1466 1470 1473 1467 1462 1466 1464 1465 1459 1455 1454 1454 1453 1452 1452 1454 1456 1459 1461 1464 1467 1470 1473 1475 1477 1480 1483 1486 1488 1492 1494 1498 1500 1502 1503 1504 1505 1506 1507 1507 1507 1507 1506 1506 1507 1506 1506 1506 1506
1469 1472 1471 1472 1465 1463 1463 1468 1459 1452 1451 1451 1452 1452 1452 1452 1453 1454 1457 1459 1462 1464 1468 1470 1474 1476 1479 1481 1484 1488 1492 1493 1496 1498 1499 1501 1501 1501 1502 1501 1502 1501 1500 1500 1501 1500 1500 1499 1498
1471 1463 1464 1468 1474 1485 1466 1490 1468 1459 1458 1452 1449 1450 1449 1449 1451 1452 1453 1455 1458 1461 1462 1465 1469 1472 1475 1478 1481 1484 1487 1491 1494 1496 1497 1497 1496 1496 1495 1495 1496 1496 1495 1494 1493 1493 1494 1493 1492
1463 1456 1462 1464 1472 1477 1476 1488 1473 1461 1456 1452 1448 1447 1448 1448 1448 1448 1448 1449 1451 1453 1457 1461 1464 1468 1472 1476 1480 1483 1486 1490 1492 1493 1493 1491 1492 1492 1492 1491 1490 1491 1490 1489 1488 1487 1486 1486 1485
1451 1458 1469 1476 1482 1489 1477 1480 1478 1465 1453 1449 1448 1447 1446 1446 1444 1443 1441 1441 1442 1446 1451 1457 1461 1464 1469 1474 1478 1483 1485 1487 1488 1488 1487 1487 1487 1486 1486 1486 1487 1487 1485 1483 1483 1482 1481 1481 1479
1454 1468 1491 1492 1495 1491 1474 1479 1470 1453 1449 1448 1448 1446 1445 1443 1441 1439 1437 1435 1436 1441 1448 1454 1460 1466 1470 1474 1477 1479 1482 1483 1483 1482 1483 1483 1483 1483 1482 1481 1481 1481 1480 1479 1477 1476 1476 1474 1473
1456 1463 1486 1490 1494 1485 1473 1477 1462 1450 1450 1449 1448 1446 1444 1442 1440 1438 1436 1433 1436 1444 1451 1456 1462 1466 1469 1472 1474 1476 1478 1478 1477 1477 1478 1478 1479 1479 1478 1478 1477 1476 1475 1474 1472 1470 1470 1469 1468
1453 1463 1458 1482 1488 1492 1479 1466 1454 1451 1451 1448 1447 1446 1446 1445 1445 1443 1441 1441 1446 1450 1455 1458 1461 1465 1468 1470 1471 1472 1473 1472 1472 1471 1471 1471 1472 1473 1473 1473 1472 1472 1470 1469 1468 1467 1465 1463 1462
1442 1448 1466 1477 1489 1489 1482 1476 1468 1454 1454 1452 1450 1450 1449 1449 1450 1450 1448 1448 1450 1453 1457 1460 1462 1464 1465 1467 1468 1468 1469 1468 1467 1466 1466 1466 1466 1467 1466 1465 1465 1464 1463 1463 1463 1462 1460 1460 1459
1449 1454 1462 1467 1479 1488 1494 1478 1456 1454 1454 1455 1454 1453 1454 1453 1454 1453 1453 1454 1455 1457 1458 1459 1460 1461 1462 1462 1462 1462 1463 1462 1461 1461 1462 1462 1461 1461 1459 1458 1458 1457 1457 1455 1454 1454 1454 1453 1453
1448 1454 1456 1474 1476 1489 1492 1479 1450 1451 1452 1454 1454 1453 1454 1453 1452 1453 1452 1453 1454 1455 1456 1456 1456 1456 1456 1455 1455 1455 1455 1454 1454 1454 1455 1455 1453 1453 1452 1451 1450 1449 1448 1447 1445 1445 1445 1444 1443